Year,Month,Day,Hour,Minute,Value (Times are PST for temperature in C)
2015,07,21,00,00,16.80
2015,07,21,00,01,16.80
2015,07,21,00,02,16.80
2015,07,21,00,03,16.80
2015,07,21,00,04,16.80
2015,07,21,00,05,16.70
2015,07,21,00,06,16.70
2015,07,21,00,07,16.70
2015,07,21,00,08,16.70
2015,07,21,00,09,16.70
2015,07,21,00,10,16.70
2015,07,21,00,11,16.60
2015,07,21,00,12,16.60
2015,07,21,00,13,16.60
2015,07,21,00,14,16.60
2015,07,21,00,15,16.50
2015,07,21,00,16,16.50
2015,07,21,00,17,16.50
2015,07,21,00,18,16.50
2015,07,21,00,19,16.50
2015,07,21,00,20,16.50
2015,07,21,00,21,16.50
2015,07,21,00,22,16.50
2015,07,21,00,23,16.50
2015,07,21,00,24,16.50
2015,07,21,00,25,16.40
2015,07,21,00,26,16.40
2015,07,21,00,27,16.40
2015,07,21,00,28,16.40
2015,07,21,00,29,16.40
2015,07,21,00,30,16.40
2015,07,21,00,31,16.30
2015,07,21,00,32,16.30
2015,07,21,00,33,16.30
2015,07,21,00,34,16.30
2015,07,21,00,35,16.30
2015,07,21,00,36,16.30
2015,07,21,00,37,16.30
2015,07,21,00,38,16.30
2015,07,21,00,39,16.30
2015,07,21,00,40,16.30
2015,07,21,00,41,16.30
2015,07,21,00,42,16.30
2015,07,21,00,43,16.30
2015,07,21,00,44,16.30
2015,07,21,00,45,16.30
2015,07,21,00,46,16.30
2015,07,21,00,47,16.30
2015,07,21,00,48,16.30
2015,07,21,00,49,16.30
2015,07,21,00,50,16.30
2015,07,21,00,51,16.30
2015,07,21,00,52,16.30
2015,07,21,00,53,16.30
2015,07,21,00,54,16.30
2015,07,21,00,55,16.30
2015,07,21,00,56,16.30
2015,07,21,00,57,16.30
2015,07,21,00,58,16.30
2015,07,21,00,59,16.30
2015,07,21,01,00,16.30
2015,07,21,01,01,16.30
2015,07,21,01,02,16.30
2015,07,21,01,03,16.30
2015,07,21,01,04,16.30
2015,07,21,01,05,16.20
2015,07,21,01,06,16.20
2015,07,21,01,07,16.20
2015,07,21,01,08,16.10
2015,07,21,01,09,16.10
2015,07,21,01,10,16.10
2015,07,21,01,11,16.00
2015,07,21,01,12,16.00
2015,07,21,01,13,15.90
2015,07,21,01,14,15.90
2015,07,21,01,15,15.90
2015,07,21,01,16,15.80
2015,07,21,01,17,15.80
2015,07,21,01,18,15.80
2015,07,21,01,19,15.80
2015,07,21,01,20,15.80
2015,07,21,01,21,15.70
2015,07,21,01,22,15.70
2015,07,21,01,23,15.70
2015,07,21,01,24,15.60
2015,07,21,01,25,15.60
2015,07,21,01,26,15.50
2015,07,21,01,27,15.50
2015,07,21,01,28,15.40
2015,07,21,01,29,15.40
2015,07,21,01,30,15.30
2015,07,21,01,31,15.30
2015,07,21,01,32,15.30
2015,07,21,01,33,15.20
2015,07,21,01,34,15.20
2015,07,21,01,35,15.20
2015,07,21,01,36,15.20
2015,07,21,01,37,15.10
2015,07,21,01,38,15.10
2015,07,21,01,39,15.10
2015,07,21,01,40,15.00
2015,07,21,01,41,15.00
2015,07,21,01,42,15.00
2015,07,21,01,43,14.90
2015,07,21,01,44,14.90
2015,07,21,01,45,14.90
2015,07,21,01,46,14.90
2015,07,21,01,47,14.90
2015,07,21,01,48,14.80
2015,07,21,01,49,14.80
2015,07,21,01,50,14.80
2015,07,21,01,51,14.80
2015,07,21,01,52,14.80
2015,07,21,01,53,14.70
2015,07,21,01,54,14.70
2015,07,21,01,55,14.70
2015,07,21,01,56,14.70
2015,07,21,01,57,14.60
2015,07,21,01,58,14.60
2015,07,21,01,59,14.60
2015,07,21,02,00,14.60
2015,07,21,02,01,14.50
2015,07,21,02,02,14.50
2015,07,21,02,03,14.50
2015,07,21,02,04,14.40
2015,07,21,02,05,14.40
2015,07,21,02,06,14.40
2015,07,21,02,07,14.40
2015,07,21,02,08,14.40
2015,07,21,02,09,14.40
2015,07,21,02,10,14.30
2015,07,21,02,11,14.30
2015,07,21,02,12,14.30
2015,07,21,02,13,14.30
2015,07,21,02,14,14.30
2015,07,21,02,15,14.30
2015,07,21,02,16,14.30
2015,07,21,02,17,14.30
2015,07,21,02,18,14.30
2015,07,21,02,19,14.30
2015,07,21,02,20,14.30
2015,07,21,02,21,14.20
2015,07,21,02,22,14.20
2015,07,21,02,23,14.20
2015,07,21,02,24,14.20
2015,07,21,02,25,14.20
2015,07,21,02,26,14.20
2015,07,21,02,27,14.20
2015,07,21,02,28,14.20
2015,07,21,02,29,14.10
2015,07,21,02,30,14.10
2015,07,21,02,31,14.10
2015,07,21,02,32,14.10
2015,07,21,02,33,14.10
2015,07,21,02,34,14.10
2015,07,21,02,35,14.10
2015,07,21,02,36,14.10
2015,07,21,02,37,14.10
2015,07,21,02,38,14.10
2015,07,21,02,39,14.10
2015,07,21,02,40,14.20
2015,07,21,02,41,14.20
2015,07,21,02,42,14.20
2015,07,21,02,43,14.20
2015,07,21,02,44,14.20
2015,07,21,02,45,14.20
2015,07,21,02,46,14.20
2015,07,21,02,47,14.20
2015,07,21,02,48,14.20
2015,07,21,02,49,14.20
2015,07,21,02,50,14.20
2015,07,21,02,51,14.20
2015,07,21,02,52,14.30
2015,07,21,02,53,14.30
2015,07,21,02,54,14.30
2015,07,21,02,55,14.20
2015,07,21,02,56,14.20
2015,07,21,02,57,14.20
2015,07,21,02,58,14.20
2015,07,21,02,59,14.20
2015,07,21,03,00,14.20
2015,07,21,03,01,14.20
2015,07,21,03,02,14.30
2015,07,21,03,03,14.30
2015,07,21,03,04,14.30
2015,07,21,03,05,14.30
2015,07,21,03,06,14.30
2015,07,21,03,07,14.30
2015,07,21,03,08,14.30
2015,07,21,03,09,14.30
2015,07,21,03,10,14.40
2015,07,21,03,11,14.40
2015,07,21,03,12,14.40
2015,07,21,03,13,14.40
2015,07,21,03,14,14.40
2015,07,21,03,15,14.40
2015,07,21,03,16,14.50
2015,07,21,03,17,14.50
2015,07,21,03,18,14.50
2015,07,21,03,19,14.50
2015,07,21,03,20,14.50
2015,07,21,03,21,14.50
2015,07,21,03,22,14.50
2015,07,21,03,23,14.50
2015,07,21,03,24,14.60
2015,07,21,03,25,14.60
2015,07,21,03,26,14.60
2015,07,21,03,27,14.60
2015,07,21,03,28,14.60
2015,07,21,03,29,14.60
2015,07,21,03,30,14.60
2015,07,21,03,31,14.60
2015,07,21,03,32,14.60
2015,07,21,03,33,14.60
2015,07,21,03,34,14.60
2015,07,21,03,35,14.70
2015,07,21,03,36,14.70
2015,07,21,03,37,14.70
2015,07,21,03,38,14.70
2015,07,21,03,39,14.70
2015,07,21,03,40,14.70
2015,07,21,03,41,14.80
2015,07,21,03,42,14.80
2015,07,21,03,43,14.80
2015,07,21,03,44,14.90
2015,07,21,03,45,14.90
2015,07,21,03,46,14.90
2015,07,21,03,47,15.00
2015,07,21,03,48,15.00
2015,07,21,03,49,15.00
2015,07,21,03,50,15.10
2015,07,21,03,51,15.10
2015,07,21,03,52,15.10
2015,07,21,03,53,15.10
2015,07,21,03,54,15.20
2015,07,21,03,55,15.20
2015,07,21,03,56,15.20
2015,07,21,03,57,15.20
2015,07,21,03,58,15.20
2015,07,21,03,59,15.20
2015,07,21,04,00,15.20
2015,07,21,04,01,15.20
2015,07,21,04,02,15.20
2015,07,21,04,03,15.20
2015,07,21,04,04,15.20
2015,07,21,04,05,15.20
2015,07,21,04,06,15.20
2015,07,21,04,07,15.20
2015,07,21,04,08,15.20
2015,07,21,04,09,15.20
2015,07,21,04,10,15.20
2015,07,21,04,11,15.10
2015,07,21,04,12,15.10
2015,07,21,04,13,15.10
2015,07,21,04,14,15.10
2015,07,21,04,15,15.10
2015,07,21,04,16,15.10
2015,07,21,04,17,15.10
2015,07,21,04,18,15.00
2015,07,21,04,19,15.00
2015,07,21,04,20,15.00
2015,07,21,04,21,15.00
2015,07,21,04,22,14.90
2015,07,21,04,23,14.90
2015,07,21,04,24,14.90
2015,07,21,04,25,14.90
2015,07,21,04,26,14.90
2015,07,21,04,27,14.90
2015,07,21,04,28,14.90
2015,07,21,04,29,14.90
2015,07,21,04,30,14.80
2015,07,21,04,31,14.80
2015,07,21,04,32,14.80
2015,07,21,04,33,14.80
2015,07,21,04,34,14.80
2015,07,21,04,35,14.80
2015,07,21,04,36,14.80
2015,07,21,04,37,14.80
2015,07,21,04,38,14.80
2015,07,21,04,39,14.80
2015,07,21,04,40,14.80
2015,07,21,04,41,14.80
2015,07,21,04,42,14.80
2015,07,21,04,43,14.80
2015,07,21,04,44,14.80
2015,07,21,04,45,14.80
2015,07,21,04,46,14.80
2015,07,21,04,47,14.80
2015,07,21,04,48,14.80
2015,07,21,04,49,14.80
2015,07,21,04,50,14.80
2015,07,21,04,51,14.80
2015,07,21,04,52,14.80
2015,07,21,04,53,14.80
2015,07,21,04,54,14.80
2015,07,21,04,55,14.80
2015,07,21,04,56,14.80
2015,07,21,04,57,14.80
2015,07,21,04,58,14.80
2015,07,21,04,59,14.80
2015,07,21,05,00,14.70
2015,07,21,05,01,14.70
2015,07,21,05,02,14.70
2015,07,21,05,03,14.70
2015,07,21,05,04,14.70
2015,07,21,05,05,14.70
2015,07,21,05,06,14.70
2015,07,21,05,07,14.70
2015,07,21,05,08,14.70
2015,07,21,05,09,14.60
2015,07,21,05,10,14.60
2015,07,21,05,11,14.60
2015,07,21,05,12,14.60
2015,07,21,05,13,14.60
2015,07,21,05,14,14.60
2015,07,21,05,15,14.60
2015,07,21,05,16,14.50
2015,07,21,05,17,14.50
2015,07,21,05,18,14.50
2015,07,21,05,19,14.50
2015,07,21,05,20,14.50
2015,07,21,05,21,14.50
2015,07,21,05,22,14.40
2015,07,21,05,23,14.40
2015,07,21,05,24,14.40
2015,07,21,05,25,14.40
2015,07,21,05,26,14.40
2015,07,21,05,27,14.40
2015,07,21,05,28,14.40
2015,07,21,05,29,14.30
2015,07,21,05,30,14.30
2015,07,21,05,31,14.30
2015,07,21,05,32,14.30
2015,07,21,05,33,14.30
2015,07,21,05,34,14.20
2015,07,21,05,35,14.20
2015,07,21,05,36,14.20
2015,07,21,05,37,14.20
2015,07,21,05,38,14.20
2015,07,21,05,39,14.20
2015,07,21,05,40,14.20
2015,07,21,05,41,14.10
2015,07,21,05,42,14.10
2015,07,21,05,43,14.10
2015,07,21,05,44,14.10
2015,07,21,05,45,14.10
2015,07,21,05,46,14.10
2015,07,21,05,47,14.10
2015,07,21,05,48,14.10
2015,07,21,05,49,14.10
2015,07,21,05,50,14.00
2015,07,21,05,51,14.00
2015,07,21,05,52,14.00
2015,07,21,05,53,14.00
2015,07,21,05,54,14.00
2015,07,21,05,55,14.00
2015,07,21,05,56,14.00
2015,07,21,05,57,13.90
2015,07,21,05,58,13.90
2015,07,21,05,59,13.90
2015,07,21,06,00,13.90
2015,07,21,06,01,13.90
2015,07,21,06,02,13.90
2015,07,21,06,03,13.90
2015,07,21,06,04,13.90
2015,07,21,06,05,13.80
2015,07,21,06,06,13.80
2015,07,21,06,07,13.80
2015,07,21,06,08,13.80
2015,07,21,06,09,13.80
2015,07,21,06,10,13.80
2015,07,21,06,11,13.80
2015,07,21,06,12,13.80
2015,07,21,06,13,13.80
2015,07,21,06,14,13.80
2015,07,21,06,15,13.80
2015,07,21,06,16,13.80
2015,07,21,06,17,13.80
2015,07,21,06,18,13.80
2015,07,21,06,19,13.80
2015,07,21,06,20,13.80
2015,07,21,06,21,13.80
2015,07,21,06,22,13.80
2015,07,21,06,23,13.80
2015,07,21,06,24,13.80
2015,07,21,06,25,13.80
2015,07,21,06,26,13.80
2015,07,21,06,27,13.80
2015,07,21,06,28,13.80
2015,07,21,06,29,13.80
2015,07,21,06,30,13.80
2015,07,21,06,31,13.80
2015,07,21,06,32,13.70
2015,07,21,06,33,13.70
2015,07,21,06,34,13.70
2015,07,21,06,35,13.70
2015,07,21,06,36,13.70
2015,07,21,06,37,13.70
2015,07,21,06,38,13.70
2015,07,21,06,39,13.70
2015,07,21,06,40,13.70
2015,07,21,06,41,13.70
2015,07,21,06,42,13.70
2015,07,21,06,43,13.80
2015,07,21,06,44,13.80
2015,07,21,06,45,13.80
2015,07,21,06,46,13.80
2015,07,21,06,47,13.80
2015,07,21,06,48,13.80
2015,07,21,06,49,13.80
2015,07,21,06,50,13.80
2015,07,21,06,51,13.90
2015,07,21,06,52,13.90
2015,07,21,06,53,13.90
2015,07,21,06,54,13.90
2015,07,21,06,55,14.00
2015,07,21,06,56,14.00
2015,07,21,06,57,14.00
2015,07,21,06,58,14.10
2015,07,21,06,59,14.10
2015,07,21,07,00,14.10
2015,07,21,07,01,14.20
2015,07,21,07,02,14.20
2015,07,21,07,03,14.20
2015,07,21,07,04,14.30
2015,07,21,07,05,14.30
2015,07,21,07,06,14.30
2015,07,21,07,07,14.40
2015,07,21,07,08,14.40
2015,07,21,07,09,14.40
2015,07,21,07,10,14.40
2015,07,21,07,11,14.50
2015,07,21,07,12,14.50
2015,07,21,07,13,14.60
2015,07,21,07,14,14.60
2015,07,21,07,15,14.70
2015,07,21,07,16,14.70
2015,07,21,07,17,14.70
2015,07,21,07,18,14.80
2015,07,21,07,19,14.80
2015,07,21,07,20,14.90
2015,07,21,07,21,14.90
2015,07,21,07,22,15.00
2015,07,21,07,23,15.00
2015,07,21,07,24,15.10
2015,07,21,07,25,15.20
2015,07,21,07,26,15.20
2015,07,21,07,27,15.20
2015,07,21,07,28,15.30
2015,07,21,07,29,15.40
2015,07,21,07,30,15.40
2015,07,21,07,31,15.50
2015,07,21,07,32,15.50
2015,07,21,07,33,15.60
2015,07,21,07,34,15.60
2015,07,21,07,35,15.70
2015,07,21,07,36,15.70
2015,07,21,07,37,15.80
2015,07,21,07,38,15.80
2015,07,21,07,39,15.90
2015,07,21,07,40,15.90
2015,07,21,07,41,15.90
2015,07,21,07,42,16.00
2015,07,21,07,43,16.10
2015,07,21,07,44,16.10
2015,07,21,07,45,16.20
2015,07,21,07,46,16.20
2015,07,21,07,47,16.20
2015,07,21,07,48,16.30
2015,07,21,07,49,16.30
2015,07,21,07,50,16.40
2015,07,21,07,51,16.40
2015,07,21,07,52,16.40
2015,07,21,07,53,16.50
2015,07,21,07,54,16.50
2015,07,21,07,55,16.60
2015,07,21,07,56,16.60
2015,07,21,07,57,16.70
2015,07,21,07,58,16.70
2015,07,21,07,59,16.80
2015,07,21,08,00,16.80
2015,07,21,08,01,16.80
2015,07,21,08,02,16.80
2015,07,21,08,03,16.90
2015,07,21,08,04,16.90
2015,07,21,08,05,17.00
2015,07,21,08,06,17.00
2015,07,21,08,07,17.00
2015,07,21,08,08,17.10
2015,07,21,08,09,17.10
2015,07,21,08,10,17.20
2015,07,21,08,11,17.20
2015,07,21,08,12,17.20
2015,07,21,08,13,17.30
2015,07,21,08,14,17.30
2015,07,21,08,15,17.30
2015,07,21,08,16,17.40
2015,07,21,08,17,17.40
2015,07,21,08,18,17.50
2015,07,21,08,19,17.50
2015,07,21,08,20,17.50
2015,07,21,08,21,17.60
2015,07,21,08,22,17.60
2015,07,21,08,23,17.70
2015,07,21,08,24,17.70
2015,07,21,08,25,17.80
2015,07,21,08,26,17.80
2015,07,21,08,27,17.90
2015,07,21,08,28,17.90
2015,07,21,08,29,17.90
2015,07,21,08,30,18.00
2015,07,21,08,31,18.00
2015,07,21,08,32,18.10
2015,07,21,08,33,18.10
2015,07,21,08,34,18.20
2015,07,21,08,35,18.20
2015,07,21,08,36,18.20
2015,07,21,08,37,18.20
2015,07,21,08,38,18.20
2015,07,21,08,39,18.20
2015,07,21,08,40,18.20
2015,07,21,08,41,18.20
2015,07,21,08,42,18.20
2015,07,21,08,43,18.20
2015,07,21,08,44,18.30
2015,07,21,08,45,18.30
2015,07,21,08,46,18.30
2015,07,21,08,47,18.30
2015,07,21,08,48,18.40
2015,07,21,08,49,18.40
2015,07,21,08,50,18.40
2015,07,21,08,51,18.50
2015,07,21,08,52,18.50
2015,07,21,08,53,18.60
2015,07,21,08,54,18.60
2015,07,21,08,55,18.60
2015,07,21,08,56,18.60
2015,07,21,08,57,18.70
2015,07,21,08,58,18.70
2015,07,21,08,59,18.70
2015,07,21,09,00,18.70
2015,07,21,09,01,18.70
2015,07,21,09,02,18.70
2015,07,21,09,03,18.70
2015,07,21,09,04,18.70
2015,07,21,09,05,18.80
2015,07,21,09,06,18.80
2015,07,21,09,07,18.90
2015,07,21,09,08,18.90
2015,07,21,09,09,19.00
2015,07,21,09,10,19.00
2015,07,21,09,11,19.10
2015,07,21,09,12,19.10
2015,07,21,09,13,19.20
2015,07,21,09,14,19.20
2015,07,21,09,15,19.30
2015,07,21,09,16,19.30
2015,07,21,09,17,19.40
2015,07,21,09,18,19.40
2015,07,21,09,19,19.40
2015,07,21,09,20,19.50
2015,07,21,09,21,19.50
2015,07,21,09,22,19.60
2015,07,21,09,23,19.70
2015,07,21,09,24,19.70
2015,07,21,09,25,19.70
2015,07,21,09,26,19.80
2015,07,21,09,27,19.80
2015,07,21,09,28,19.90
2015,07,21,09,29,19.90
2015,07,21,09,30,19.90
2015,07,21,09,31,20.00
2015,07,21,09,32,20.00
2015,07,21,09,33,20.00
2015,07,21,09,34,20.00
2015,07,21,09,35,20.10
2015,07,21,09,36,20.10
2015,07,21,09,37,20.10
2015,07,21,09,38,20.10
2015,07,21,09,39,20.10
2015,07,21,09,40,20.10
2015,07,21,09,41,20.10
2015,07,21,09,42,20.20
2015,07,21,09,43,20.20
2015,07,21,09,44,20.30
2015,07,21,09,45,20.40
2015,07,21,09,46,20.50
2015,07,21,09,47,20.50
2015,07,21,09,48,20.60
2015,07,21,09,49,20.70
2015,07,21,09,50,20.70
2015,07,21,09,51,20.70
2015,07,21,09,52,20.70
2015,07,21,09,53,20.60
2015,07,21,09,54,20.50
2015,07,21,09,55,20.40
2015,07,21,09,56,20.40
2015,07,21,09,57,20.40
2015,07,21,09,58,20.40
2015,07,21,09,59,20.50
2015,07,21,10,00,20.50
2015,07,21,10,01,20.50
2015,07,21,10,02,20.50
2015,07,21,10,03,20.50
2015,07,21,10,04,20.60
2015,07,21,10,05,20.60
2015,07,21,10,06,20.60
2015,07,21,10,07,20.60
2015,07,21,10,08,20.60
2015,07,21,10,09,20.60
2015,07,21,10,10,20.60
2015,07,21,10,11,20.70
2015,07,21,10,12,20.70
2015,07,21,10,13,20.80
2015,07,21,10,14,20.80
2015,07,21,10,15,20.80
2015,07,21,10,16,20.80
2015,07,21,10,17,20.80
2015,07,21,10,18,20.90
2015,07,21,10,19,20.80
2015,07,21,10,20,20.70
2015,07,21,10,21,20.60
2015,07,21,10,22,20.50
2015,07,21,10,23,20.40
2015,07,21,10,24,20.30
2015,07,21,10,25,20.30
2015,07,21,10,26,20.30
2015,07,21,10,27,20.40
2015,07,21,10,28,20.50
2015,07,21,10,29,20.50
2015,07,21,10,30,20.60
2015,07,21,10,31,20.60
2015,07,21,10,32,20.60
2015,07,21,10,33,20.60
2015,07,21,10,34,20.60
2015,07,21,10,35,20.70
2015,07,21,10,36,20.80
2015,07,21,10,37,20.80
2015,07,21,10,38,20.90
2015,07,21,10,39,20.90
2015,07,21,10,40,20.90
2015,07,21,10,41,20.80
2015,07,21,10,42,20.70
2015,07,21,10,43,20.70
2015,07,21,10,44,20.70
2015,07,21,10,45,20.70
2015,07,21,10,46,20.70
2015,07,21,10,47,20.60
2015,07,21,10,48,20.60
2015,07,21,10,49,20.60
2015,07,21,10,50,20.60
2015,07,21,10,51,20.60
2015,07,21,10,52,20.60
2015,07,21,10,53,20.70
2015,07,21,10,54,20.70
2015,07,21,10,55,20.70
2015,07,21,10,56,20.70
2015,07,21,10,57,20.70
2015,07,21,10,58,20.80
2015,07,21,10,59,20.80
2015,07,21,11,00,20.80
2015,07,21,11,01,20.80
2015,07,21,11,02,20.90
2015,07,21,11,03,20.90
2015,07,21,11,04,20.80
2015,07,21,11,05,20.90
2015,07,21,11,06,20.90
2015,07,21,11,07,20.90
2015,07,21,11,08,20.90
2015,07,21,11,09,21.00
2015,07,21,11,10,21.10
2015,07,21,11,11,21.10
2015,07,21,11,12,21.10
2015,07,21,11,13,21.10
2015,07,21,11,14,21.10
2015,07,21,11,15,21.10
2015,07,21,11,16,21.10
2015,07,21,11,17,21.10
2015,07,21,11,18,21.10
2015,07,21,11,19,21.10
2015,07,21,11,20,21.00
2015,07,21,11,21,21.00
2015,07,21,11,22,20.90
2015,07,21,11,23,20.80
2015,07,21,11,24,20.80
2015,07,21,11,25,20.80
2015,07,21,11,26,20.80
2015,07,21,11,27,20.80
2015,07,21,11,28,20.80
2015,07,21,11,29,20.80
2015,07,21,11,30,20.80
2015,07,21,11,31,20.70
2015,07,21,11,32,20.70
2015,07,21,11,33,20.80
2015,07,21,11,34,20.80
2015,07,21,11,35,20.80
2015,07,21,11,36,20.80
2015,07,21,11,37,20.70
2015,07,21,11,38,20.60
2015,07,21,11,39,20.60
2015,07,21,11,40,20.60
2015,07,21,11,41,20.60
2015,07,21,11,42,20.60
2015,07,21,11,43,20.60
2015,07,21,11,44,20.60
2015,07,21,11,45,20.60
2015,07,21,11,46,20.70
2015,07,21,11,47,20.70
2015,07,21,11,48,20.80
2015,07,21,11,49,20.80
2015,07,21,11,50,20.90
2015,07,21,11,51,21.00
2015,07,21,11,52,21.00
2015,07,21,11,53,21.10
2015,07,21,11,54,21.20
2015,07,21,11,55,21.20
2015,07,21,11,56,21.30
2015,07,21,11,57,21.40
2015,07,21,11,58,21.40
2015,07,21,11,59,21.50
2015,07,21,12,00,21.50
2015,07,21,12,01,21.60
2015,07,21,12,02,21.60
2015,07,21,12,03,21.60
2015,07,21,12,04,21.60
2015,07,21,12,05,21.70
2015,07,21,12,06,21.70
2015,07,21,12,07,21.80
2015,07,21,12,08,21.80
2015,07,21,12,09,21.70
2015,07,21,12,10,21.60
2015,07,21,12,11,21.60
2015,07,21,12,12,21.70
2015,07,21,12,13,21.70
2015,07,21,12,14,21.70
2015,07,21,12,15,21.70
2015,07,21,12,16,21.70
2015,07,21,12,17,21.70
2015,07,21,12,18,21.70
2015,07,21,12,19,21.70
2015,07,21,12,20,21.60
2015,07,21,12,21,21.50
2015,07,21,12,22,21.30
2015,07,21,12,23,21.30
2015,07,21,12,24,21.20
2015,07,21,12,25,21.20
2015,07,21,12,26,21.30
2015,07,21,12,27,21.30
2015,07,21,12,28,21.40
2015,07,21,12,29,21.40
2015,07,21,12,30,21.50
2015,07,21,12,31,21.60
2015,07,21,12,32,21.70
2015,07,21,12,33,21.70
2015,07,21,12,34,21.70
2015,07,21,12,35,21.60
2015,07,21,12,36,21.50
2015,07,21,12,37,21.40
2015,07,21,12,38,21.30
2015,07,21,12,39,21.20
2015,07,21,12,40,21.10
2015,07,21,12,41,21.10
2015,07,21,12,42,21.10
2015,07,21,12,43,21.00
2015,07,21,12,44,21.10
2015,07,21,12,45,21.10
2015,07,21,12,46,21.00
2015,07,21,12,47,21.10
2015,07,21,12,48,21.10
2015,07,21,12,49,21.20
2015,07,21,12,50,21.30
2015,07,21,12,51,21.40
2015,07,21,12,52,21.50
2015,07,21,12,53,21.50
2015,07,21,12,54,21.60
2015,07,21,12,55,21.50
2015,07,21,12,56,21.50
2015,07,21,12,57,21.50
2015,07,21,12,58,21.50
2015,07,21,12,59,21.50
2015,07,21,13,00,21.60
2015,07,21,13,01,21.50
2015,07,21,13,02,21.50
2015,07,21,13,03,21.40
2015,07,21,13,04,21.30
2015,07,21,13,05,21.30
2015,07,21,13,06,21.30
2015,07,21,13,07,21.30
2015,07,21,13,08,21.20
2015,07,21,13,09,21.20
2015,07,21,13,10,21.20
2015,07,21,13,11,21.30
2015,07,21,13,12,21.40
2015,07,21,13,13,21.40
2015,07,21,13,14,21.40
2015,07,21,13,15,21.50
2015,07,21,13,16,21.60
2015,07,21,13,17,21.70
2015,07,21,13,18,21.80
2015,07,21,13,19,21.90
2015,07,21,13,20,21.90
2015,07,21,13,21,22.00
2015,07,21,13,22,22.10
2015,07,21,13,23,22.00
2015,07,21,13,24,21.90
2015,07,21,13,25,21.90
2015,07,21,13,26,21.90
2015,07,21,13,27,21.90
2015,07,21,13,28,21.90
2015,07,21,13,29,21.90
2015,07,21,13,30,21.90
2015,07,21,13,31,21.90
2015,07,21,13,32,21.90
2015,07,21,13,33,22.00
2015,07,21,13,34,22.10
2015,07,21,13,35,22.10
2015,07,21,13,36,22.10
2015,07,21,13,37,22.10
2015,07,21,13,38,22.10
2015,07,21,13,39,22.20
2015,07,21,13,40,22.20
2015,07,21,13,41,22.20
2015,07,21,13,42,22.20
2015,07,21,13,43,22.30
2015,07,21,13,44,22.40
2015,07,21,13,45,22.40
2015,07,21,13,46,22.40
2015,07,21,13,47,22.40
2015,07,21,13,48,22.40
2015,07,21,13,49,22.40
2015,07,21,13,50,22.50
2015,07,21,13,51,22.50
2015,07,21,13,52,22.50
2015,07,21,13,53,22.60
2015,07,21,13,54,22.70
2015,07,21,13,55,22.80
2015,07,21,13,56,22.90
2015,07,21,13,57,22.80
2015,07,21,13,58,22.80
2015,07,21,13,59,22.80
2015,07,21,14,00,22.80
2015,07,21,14,01,22.90
2015,07,21,14,02,22.90
2015,07,21,14,03,22.90
2015,07,21,14,04,22.90
2015,07,21,14,05,22.90
2015,07,21,14,06,22.90
2015,07,21,14,07,22.80
2015,07,21,14,08,22.80
2015,07,21,14,09,22.80
2015,07,21,14,10,22.80
2015,07,21,14,11,22.80
2015,07,21,14,12,22.90
2015,07,21,14,13,22.90
2015,07,21,14,14,22.90
2015,07,21,14,15,22.90
2015,07,21,14,16,22.80
2015,07,21,14,17,22.80
2015,07,21,14,18,22.90
2015,07,21,14,19,22.90
2015,07,21,14,20,22.90
2015,07,21,14,21,23.00
2015,07,21,14,22,23.00
2015,07,21,14,23,23.00
2015,07,21,14,24,23.10
2015,07,21,14,25,23.20
2015,07,21,14,26,23.30
2015,07,21,14,27,23.40
2015,07,21,14,28,23.30
2015,07,21,14,29,23.30
2015,07,21,14,30,23.20
2015,07,21,14,31,23.20
2015,07,21,14,32,23.20
2015,07,21,14,33,23.20
2015,07,21,14,34,23.10
2015,07,21,14,35,22.90
2015,07,21,14,36,22.90
2015,07,21,14,37,22.90
2015,07,21,14,38,23.10
2015,07,21,14,39,23.30
2015,07,21,14,40,23.50
2015,07,21,14,41,23.60
2015,07,21,14,42,23.60
2015,07,21,14,43,23.50
2015,07,21,14,44,23.50
2015,07,21,14,45,23.60
2015,07,21,14,46,23.60
2015,07,21,14,47,23.60
2015,07,21,14,48,23.70
2015,07,21,14,49,23.60
2015,07,21,14,50,23.70
2015,07,21,14,51,23.60
2015,07,21,14,52,23.50
2015,07,21,14,53,23.40
2015,07,21,14,54,23.20
2015,07,21,14,55,23.10
2015,07,21,14,56,23.10
2015,07,21,14,57,23.10
2015,07,21,14,58,23.20
2015,07,21,14,59,23.30
2015,07,21,15,00,23.30
2015,07,21,15,01,23.20
2015,07,21,15,02,23.30
2015,07,21,15,03,23.30
2015,07,21,15,04,23.20
2015,07,21,15,05,23.20
2015,07,21,15,06,23.10
2015,07,21,15,07,23.10
2015,07,21,15,08,23.10
2015,07,21,15,09,23.00
2015,07,21,15,10,22.90
2015,07,21,15,11,22.90
2015,07,21,15,12,22.90
2015,07,21,15,13,22.90
2015,07,21,15,14,23.00
2015,07,21,15,15,23.00
2015,07,21,15,16,23.00
2015,07,21,15,17,23.10
2015,07,21,15,18,23.10
2015,07,21,15,19,23.10
2015,07,21,15,20,23.20
2015,07,21,15,21,23.20
2015,07,21,15,22,23.20
2015,07,21,15,23,23.20
2015,07,21,15,24,23.10
2015,07,21,15,25,23.20
2015,07,21,15,26,23.20
2015,07,21,15,27,23.30
2015,07,21,15,28,23.30
2015,07,21,15,29,23.30
2015,07,21,15,30,23.30
2015,07,21,15,31,23.20
2015,07,21,15,32,23.20
2015,07,21,15,33,23.20
2015,07,21,15,34,23.30
2015,07,21,15,35,23.30
2015,07,21,15,36,23.30
2015,07,21,15,37,23.30
2015,07,21,15,38,23.30
2015,07,21,15,39,23.30
2015,07,21,15,40,23.20
2015,07,21,15,41,23.30
2015,07,21,15,42,23.30
2015,07,21,15,43,23.30
2015,07,21,15,44,23.30
2015,07,21,15,45,23.40
2015,07,21,15,46,23.40
2015,07,21,15,47,23.50
2015,07,21,15,48,23.50
2015,07,21,15,49,23.40
2015,07,21,15,50,23.20
2015,07,21,15,51,23.10
2015,07,21,15,52,23.10
2015,07,21,15,53,23.00
2015,07,21,15,54,23.00
2015,07,21,15,55,23.00
2015,07,21,15,56,23.00
2015,07,21,15,57,23.10
2015,07,21,15,58,23.20
2015,07,21,15,59,23.30
2015,07,21,16,00,23.40
2015,07,21,16,01,23.40
2015,07,21,16,02,23.40
2015,07,21,16,03,23.30
2015,07,21,16,04,23.20
2015,07,21,16,05,23.10
2015,07,21,16,06,23.10
2015,07,21,16,07,23.10
2015,07,21,16,08,23.10
2015,07,21,16,09,23.10
2015,07,21,16,10,23.10
2015,07,21,16,11,23.20
2015,07,21,16,12,23.20
2015,07,21,16,13,23.20
2015,07,21,16,14,23.20
2015,07,21,16,15,23.30
2015,07,21,16,16,23.30
2015,07,21,16,17,23.30
2015,07,21,16,18,23.30
2015,07,21,16,19,23.10
2015,07,21,16,20,23.10
2015,07,21,16,21,23.00
2015,07,21,16,22,22.90
2015,07,21,16,23,22.90
2015,07,21,16,24,22.80
2015,07,21,16,25,22.80
2015,07,21,16,26,22.70
2015,07,21,16,27,22.70
2015,07,21,16,28,22.70
2015,07,21,16,29,22.70
2015,07,21,16,30,22.70
2015,07,21,16,31,22.70
2015,07,21,16,32,22.70
2015,07,21,16,33,22.70
2015,07,21,16,34,22.60
2015,07,21,16,35,22.60
2015,07,21,16,36,22.60
2015,07,21,16,37,22.60
2015,07,21,16,38,22.70
2015,07,21,16,39,22.80
2015,07,21,16,40,22.80
2015,07,21,16,41,22.90
2015,07,21,16,42,22.90
2015,07,21,16,43,22.90
2015,07,21,16,44,22.90
2015,07,21,16,45,22.80
2015,07,21,16,46,22.80
2015,07,21,16,47,22.80
2015,07,21,16,48,22.80
2015,07,21,16,49,22.80
2015,07,21,16,50,22.80
2015,07,21,16,51,22.80
2015,07,21,16,52,22.80
2015,07,21,16,53,22.80
2015,07,21,16,54,22.90
2015,07,21,16,55,22.90
2015,07,21,16,56,23.00
2015,07,21,16,57,23.00
2015,07,21,16,58,23.10
2015,07,21,16,59,23.10
2015,07,21,17,00,23.10
2015,07,21,17,01,23.10
2015,07,21,17,02,23.10
2015,07,21,17,03,23.00
2015,07,21,17,04,22.90
2015,07,21,17,05,22.70
2015,07,21,17,06,22.60
2015,07,21,17,07,22.60
2015,07,21,17,08,22.60
2015,07,21,17,09,22.60
2015,07,21,17,10,22.50
2015,07,21,17,11,22.50
2015,07,21,17,12,22.60
2015,07,21,17,13,22.70
2015,07,21,17,14,22.80
2015,07,21,17,15,22.80
2015,07,21,17,16,22.80
2015,07,21,17,17,22.80
2015,07,21,17,18,22.80
2015,07,21,17,19,22.70